Location: Unspecified
(0.0000°N, 0.0000°E)
Time: 08:02:55
(UTC+00:00)

deb r/b Ablestar - Visible Passes

Search period start: 12 May 2025 00:00
Search period end: 22 May 2025 00:00
Orbit: 730 x 876 km, 66.7° (Epoch: 11 May)

Date Brightness Start Highest point End Pass type
(mag) Time Alt. Az. Time Alt. Az. Time Alt. Az.
12 May 8.2 20:14:10 10° NW 20:17:49 38° WNW 20:17:49 38° WNW visible
13 May 7.1 19:47:04 10° NNW 19:52:06 66° WSW 19:52:30 63° SW visible
14 May 6.8 19:20:05 10° NNW 19:25:11 87° ENE 19:27:15 37° SSE visible
15 May 6.9 18:53:15 10° N 18:58:16 61° ENE 19:02:03 17° SSE visible
16 May 7.4 18:26:33 10° N 18:31:21 42° ENE 18:36:07 10° SE visible
16 May 9.8 20:14:01 10° WSW 20:14:47 10° WSW 20:15:33 10° WSW visible
17 May 10.3 05:24:57 10° ESE 05:26:01 10° ESE 05:27:05 10° E visible
17 May 9.5 19:44:56 10° WNW 19:47:50 15° WSW 19:50:44 10° SW visible
18 May 9.2 19:17:03 10° WNW 19:20:53 22° WSW 19:24:44 10° SSW visible
19 May 8.7 18:49:32 10° NW 18:53:57 30° WSW 18:58:23 10° S visible
20 May 8.1 18:22:14 10° NW 18:27:01 43° WSW 18:31:49 10° S visible
21 May 8.6 05:16:22 10° S 05:21:50 41° ESE 05:27:17 10° NE visible
